EW2077 Weather Reports


Display with metric or nautical units.
time (UTC)temp
F
wind
direction
speed
MPH
gust
MPH
rain 1hr
in
rain 24hr
in
rain mn
in
humidity
%
barometer
mb
20260506000020 29 197 0.0 0.0 0.00 0.00 0.00 92 1036.5
20260505234520 29 197 0.0 0.0 0.00 0.00 0.00 92 1036.2
20260505233015 30 197 0.0 1.0 0.00 0.00 0.00 92 1036.0
20260505231514 30 197 0.0 1.0 0.00 0.00 0.00 92 1035.9
20260505230011 30 196 0.0 3.0 0.00 0.00 0.00 92 1035.1
20260505224507 31 201 0.0 3.0 0.00 0.00 0.00 92 1034.7
20260505223007 32 200 0.0 1.0 0.00 0.00 0.00 92 1035.2
20260505221504 32 200 0.0 2.0 0.00 0.00 0.00 92 1034.3
20260505220003 32 200 0.0 2.0 0.00 0.00 0.00 92 1034.1
20260505214502 33 200 0.0 3.0 0.00 0.00 0.00 91 1034.1
20260505213002 33 200 0.0 3.0 0.00 0.00 0.00 91 1034.1
20260505211502 34 200 0.0 0.0 0.00 0.00 0.00 91 1033.9
20260505210000 33 200 0.0 3.0 0.00 0.00 0.00 91 1034.2
20260505204600 33 201 0.0 2.0 0.00 0.00 0.00 91 1034.2
20260505203059 33 200 2.0 6.0 0.00 0.00 0.00 91 1034.4
20260505201558 34 188 0.0 5.0 0.00 0.00 0.00 91 1034.5
20260505200105 35 202 0.0 3.0 0.00 0.00 0.00 91 1034.1
20260505194556 34 201 0.0 3.0 0.00 0.00 0.00 92 1034.1
20260505193053 34 201 0.0 0.0 0.00 0.00 0.00 92 1034.0
20260505191554 34 202 0.0 3.0 0.00 0.00 0.00 92 1033.8
20260505190055 33 202 0.0 3.0 0.00 0.00 0.00 92 1034.0
20260505184552 33 199 1.0 4.0 0.00 0.00 0.00 93 1034.1
20260505183103 32 198 0.0 3.0 0.00 0.00 0.00 92 1034.2
20260505181553 33 198 0.0 2.0 0.00 0.00 0.00 93 1034.2
20260505180052 32 198 0.0 4.0 0.00 0.00 0.00 92 1034.1
20260505174558 32 198 0.0 2.0 0.00 0.00 0.00 92 1034.1
20260505173048 32 198 0.0 3.0 0.00 0.00 0.00 92 1034.2
20260505171550 33 200 0.0 1.0 0.00 0.00 0.00 93 1034.1
20260505170047 33 200 0.0 1.0 0.00 0.00 0.00 93 1034.0
20260505164546 32 200 0.0 0.0 0.00 0.00 0.00 93 1034.1
20260505163045 32 200 0.0 1.0 0.00 0.00 0.00 93 1034.2
20260505161545 31 200 0.0 2.0 0.00 0.00 0.00 93 1034.1
20260505153041 31 200 0.0 2.0 0.00 0.00 0.00 93 1034.0
20260505151541 31 200 0.0 2.0 0.00 0.00 0.00 93 1034.1
20260505124527 32 201 0.0 0.0 0.00 0.00 0.00 93 1033.3
20260505123028 32 201 0.0 0.0 0.00 0.00 0.00 93 1033.2
20260505121527 32 201 0.0 0.0 0.00 0.00 0.00 93 1033.2
20260505120031 33 201 0.0 0.0 0.00 0.00 0.00 93 1033.1
20260505114520 33 201 0.0 2.0 0.00 0.00 0.00 93 1032.8
20260505113012 33 200 0.0 5.0 0.00 0.00 0.00 92 1032.5
20260505111515 34 206 2.0 6.0 0.00 0.00 0.00 92 1032.2
20260505101556 38 210 0.0 1.0 0.00 0.00 0.00 92 1031.3
20260505100054 39 210 0.0 0.0 0.00 0.00 0.00 92 1031.3
20260505094552 39 210 0.0 0.0 0.00 0.00 0.00 92 1031.1
20260505093058 39 210 0.0 0.0 0.00 0.00 0.00 92 1031.5
20260505091602 39 210 0.0 0.0 0.00 0.00 0.00 92 1031.5
20260505090049 39 210 0.0 0.0 0.00 0.00 0.00 92 1031.3
20260505084549 39 210 0.0 0.0 0.00 0.00 0.00 92 1031.3
20260505083054 39 210 0.0 0.0 0.00 0.00 0.00 92 1031.6
20260505081546 39 210 0.0 0.0 0.00 0.00 0.00 92 1031.7
20260505080046 39 210 0.0 0.0 0.00 0.00 0.00 92 1031.6
20260505074544 39 210 0.0 0.0 0.00 0.00 0.00 92 1031.5
20260505073052 39 210 0.0 0.0 0.00 0.00 0.00 92 1031.6
20260505071554 39 210 0.0 0.0 0.00 0.00 0.00 91 1031.6
20260505070044 39 210 0.0 0.0 0.00 0.00 0.00 91 1031.6
20260505064542 39 210 0.0 0.0 0.00 0.00 0.00 92 1031.7
20260505063040 39 210 0.0 0.0 0.00 0.00 0.00 91 1031.5
20260505061637 39 210 0.0 0.0 0.00 0.00 0.00 91 1031.6
20260505060045 39 210 0.0 0.0 0.00 0.00 0.00 91 1031.5
20260505054536 39 210 0.0 0.0 0.00 0.00 0.00 91 1031.7
20260505053033 39 210 0.0 0.0 0.00 0.00 0.00 91 1031.6
20260505051539 39 210 0.0 0.0 0.00 0.00 0.00 91 1031.6
20260505041530 40 210 0.0 0.0 0.00 0.00 0.00 90 1031.8
20260505040030 41 210 0.0 1.0 0.00 0.00 0.00 90 1031.7
20260505034529 42 208 0.0 0.0 0.00 0.00 0.00 90 1031.7
20260505033029 42 208 0.0 0.0 0.00 0.00 0.00 90 1031.9
20260505031529 43 208 0.0 0.0 0.00 0.00 0.00 90 1031.8
20260505030028 43 208 0.0 0.0 0.00 0.00 0.00 89 1031.3
20260505024526 43 208 0.0 0.0 0.00 0.00 0.00 89 1030.9
20260505023028 43 208 0.0 0.0 0.00 0.00 0.00 89 1030.6
20260505021529 43 208 0.0 0.0 0.00 0.00 0.00 89 1030.1
20260505020025 44 208 0.0 0.0 0.00 0.00 0.00 88 1029.7
20260505014525 44 208 0.0 0.0 0.00 0.00 0.00 88 1029.6
20260505013024 44 208 0.0 0.0 0.00 0.00 0.00 88 1029.4
20260505011525 44 208 0.0 0.0 0.00 0.00 0.00 87 1029.7
20260505010022 44 208 0.0 0.0 0.00 0.00 0.00 87 1029.8
20260505004525 45 208 0.0 0.0 0.00 0.00 0.00 86 1029.4
20260505003021 45 208 0.0 0.0 0.00 0.00 0.00 87 1029.7
20260505001520 45 208 0.0 0.0 0.00 0.00 0.00 85 1030.2